Temp
28 28 27 27 26 26 26 25 25 25 25 25 25 25 25 26 27 27 28 29 29 30 31 32 34 34 35 37 39 40 41 41 41 41 41 41 42 43 43 44 43 43
27 27 27 27 26 26 26 26 25 25 24 24 24 24 25 25 26 26 26 27 28 29 30 32 32 32 33 34 37 38 39 39 39 41 40 41 41 42 43 44 44 44
26 25 25 24 24 24 25 25 25 24 24 24 24 24 24 25 24 25 26 26 27 28 30 31 30 31 31 34 36 38 38 38 38 39 39 39 40 41 42 44 44 44
25 25 25 24 24 24 24 24 23 23 23 23 23 23 24 24 24 24 25 26 26 27 28 29 29 30 31 33 35 36 38 38 38 39 38 39 40 41 42 43 44 44
24 24 24 24 24 24 24 23 22 23 22 22 23 23 23 23 22 22 23 24 25 26 26 27 28 28 30 30 33 34 37 37 38 38 38 38 40 40 41 42 43 44
24 24 24 24 24 23 23 22 22 22 22 22 22 22 22 22 21 22 22 23 24 25 25 26 27 28 29 29 31 33 36 36 37 38 37 38 38 40 41 41 43 44
23 23 23 23 23 23 22 22 22 23 22 22 22 21 21 21 21 21 22 22 23 24 24 25 26 28 29 29 30 32 35 36 37 37 37 37 38 38 40 41 41 43
22 22 22 22 22 22 21 22 22 22 22 21 20 21 21 20 20 20 21 22 22 23 24 25 26 27 28 28 29 31 34 36 36 36 36 36 37 37 38 40 41 42
21 21 21 21 21 21 21 21 22 22 22 21 20 20 20 20 20 20 20 21 21 22 23 24 25 26 27 28 29 31 33 35 36 36 36 35 35 36 37 39 39 40
20 21 20 20 19 20 20 21 22 22 22 20 20 20 19 20 20 20 20 20 20 21 22 23 24 26 27 27 28 28 30 33 35 35 35 35 35 36 36 37 38 38
19 19 19 19 19 20 21 21 21 21 21 20 19 19 19 19 19 20 20 21 22 22 23 24 24 25 25 26 27 28 29 31 34 35 35 35 35 35 36 36 37 38
18 18 18 18 18 20 20 20 20 20 20 19 19 18 18 19 19 19 19 19 20 21 21 20 21 22 23 24 25 26 28 29 31 34 35 35 35 35 35 36 37 38
17 17 18 18 18 18 19 19 19 19 19 17 17 17 17 17 17 18 18 18 18 19 19 20 21 22 22 23 24 25 27 28 30 32 34 34 35 35 35 36 37 38
16 16 17 17 18 18 18 18 18 18 17 17 16 15 16 16 16 17 18 18 18 19 20 20 20 21 21 23 24 25 26 27 29 31 33 34 34 34 35 36 36 37
16 16 17 18 17 16 16 16 16 15 15 15 15 15 15 16 16 16 16 16 17 18 19 20 21 22 23 23 24 25 27 28 30 32 33 33 34 34 35 35 36 36
15 15 16 15 15 14 14 14 14 13 14 13 13 14 14 15 15 16 16 16 16 17 18 19 21 23 25 28 29 27 27 28 29 30 32 33 33 33 34 35 35 36
14 14 14 13 13 13 12 12 11 11 11 11 12 12 13 14 14 14 15 16 16 16 17 18 19 21 25 27 29 30 29 29 29 30 31 32 33 33 33 34 34 35
13 12 11 11 10 9 9 9 10 9 9 10 10 11 12 13 13 14 14 15 16 16 16 17 19 22 25 26 28 30 31 29 30 30 30 32 33 33 34 34 34 34
11 10 8 8 8 8 8 8 7 7 7 8 9 11 12 12 13 14 14 15 15 15 15 17 18 23 25 27 28 30 31 31 30 30 31 31 32 33 34 34 34 34
9 7 6 6 7 6 6 6 6 6 7 8 9 10 11 11 12 13 14 14 15 15 16 17 18 22 25 27 28 30 31 32 31 31 31 32 32 33 34 34 34 34
6 5 4 5 5 5 5 5 6 6 6 8 9 10 10 11 12 12 13 14 15 16 16 17 18 23 25 27 28 30 31 32 30 30 31 32 32 33 34 35 35 35
4 3 3 3 4 4 4 5 5 6 6 8 9 11 12 13 13 13 13 13 14 15 16 17 19 24 25 26 28 29 31 30 29 29 29 30 32 34 34 35 35 35
3 2 2 2 3 3 4 4 5 7 8 10 10 11 12 12 12 13 14 14 14 15 15 16 17 22 25 26 28 29 30 28 29 29 29 30 32 34 35 35 35 35
2 1 1 2 2 3 4 6 7 9 10 12 11 11 11 13 14 14 14 15 15 15 16 16 17 21 24 25 27 29 30 28 28 29 29 30 32 34 35 35 35 35
1 1 2 2 4 5 6 7 8 10 11 12 12 12 12 14 14 14 14 15 16 16 19 18 18 20 24 25 27 29 30 29 29 29 29 30 32 33 34 34 34 35
0 1 2 3 4 6 7 8 9 9 9 10 11 12 12 14 15 15 15 15 16 17 17 18 18 19 22 26 28 30 32 30 30 29 29 30 31 32 32 33 34 34
MSLP
1018.97 1018.69 1018.29 1017.85 1017.41 1017.05 1016.53 1015.93 1015.37 1014.89 1014.29 1013.81 1013.29 1012.49 1012.17 1011.57 1011.29 1010.81 1010.21 1009.65 1009.25 1008.81 1008.25 1007.69 1007.13 1006.65 1006.29 1005.85 1005.17 1004.25 1003.53 1003.17 1002.77 1002.29 1002.09 1002.05 1001.97 1002.01 1001.73 1001.25 1000.93 1000.93
1018.53 1018.25 1017.85 1017.49 1017.01 1016.57 1016.13 1015.73 1015.09 1014.61 1013.93 1013.45 1012.93 1012.33 1011.73 1011.41 1010.81 1010.57 1009.85 1009.33 1008.77 1008.25 1007.77 1007.13 1006.73 1006.45 1006.17 1005.65 1004.81 1003.97 1003.21 1002.85 1002.61 1002.09 1001.69 1001.53 1001.41 1001.37 1001.13 1000.81 1000.37 1000.41
1017.93 1017.69 1017.37 1017.01 1016.61 1016.01 1015.57 1015.05 1014.61 1014.09 1013.57 1012.97 1012.49 1011.97 1011.37 1011.01 1010.49 1010.13 1009.57 1009.01 1008.33 1007.73 1007.21 1006.69 1006.41 1006.13 1005.85 1005.37 1004.45 1003.65 1002.97 1002.45 1002.21 1001.73 1001.29 1001.05 1000.85 1000.77 1000.69 1000.45 1000.13 999.97
1017.45 1017.21 1016.89 1016.49 1016.13 1015.61 1015.01 1014.49 1013.85 1013.45 1013.01 1012.45 1011.97 1011.49 1011.01 1010.45 1010.13 1009.65 1009.17 1008.65 1008.01 1007.33 1006.77 1006.45 1006.13 1005.73 1005.37 1005.01 1004.41 1003.49 1002.65 1002.01 1001.65 1001.37 1000.93 1000.53 1000.29 1000.25 1000.29 1000.25 999.93 999.65
1017.13 1016.65 1016.29 1015.89 1015.41 1014.97 1014.41 1013.89 1013.29 1012.77 1012.37 1011.85 1011.37 1010.93 1010.45 1010.05 1009.73 1009.33 1008.85 1008.13 1007.57 1007.01 1006.65 1006.21 1005.73 1005.25 1004.93 1004.73 1004.41 1003.45 1002.45 1001.81 1001.33 1001.13 1000.77 1000.29 999.89 999.85 999.89 999.97 999.61 999.21
1016.69 1016.41 1015.97 1015.57 1015.05 1014.53 1013.89 1013.33 1012.77 1012.25 1011.69 1011.21 1010.81 1010.41 1009.93 1009.61 1009.25 1008.85 1008.33 1007.69 1007.09 1006.65 1006.25 1005.85 1005.33 1004.61 1004.33 1004.21 1003.97 1003.17 1002.29 1001.61 1001.09 1000.77 1000.57 1000.17 999.81 999.53 999.49 999.57 999.37 998.89
1016.37 1015.97 1015.53 1015.05 1014.49 1014.05 1013.53 1012.85 1012.29 1011.77 1011.21 1010.81 1010.25 1009.81 1009.53 1008.97 1008.65 1008.29 1007.85 1007.33 1006.73 1006.13 1005.73 1005.41 1004.81 1004.13 1003.73 1003.69 1003.53 1002.89 1001.97 1001.33 1000.81 1000.49 1000.29 1000.09 999.77 999.37 999.21 999.21 999.13 998.69
1016.17 1015.69 1015.21 1014.69 1014.17 1013.57 1013.01 1012.37 1011.81 1011.25 1010.77 1010.21 1009.81 1009.25 1009.05 1008.45 1008.05 1007.65 1007.25 1006.77 1006.21 1005.53 1005.17 1004.85 1004.41 1003.85 1003.29 1003.13 1002.97 1002.49 1001.57 1000.89 1000.53 1000.25 1000.09 999.93 999.77 999.49 999.21 999.05 998.89 998.49
1015.89 1015.41 1014.85 1014.33 1013.77 1013.09 1012.45 1011.85 1011.25 1010.69 1010.29 1009.81 1009.21 1008.69 1008.21 1007.97 1007.45 1007.05 1006.61 1006.29 1005.77 1005.25 1004.85 1004.49 1004.09 1003.45 1002.85 1002.61 1002.41 1002.13 1001.29 1000.45 1000.05 999.89 999.81 999.77 999.65 999.41 999.13 998.85 998.61 998.29
1015.61 1015.17 1014.61 1014.01 1013.45 1012.81 1012.21 1011.57 1010.85 1010.29 1009.85 1009.53 1008.89 1008.37 1007.81 1007.25 1007.01 1006.45 1006.01 1005.61 1005.09 1004.61 1004.25 1003.85 1003.45 1002.89 1002.33 1002.13 1002.05 1001.93 1001.41 1000.33 999.53 999.29 999.17 999.13 999.05 998.89 998.65 998.45 998.25 997.97
1015.37 1014.93 1014.41 1013.73 1013.01 1012.25 1011.53 1010.97 1010.53 1010.01 1009.41 1009.01 1008.65 1007.97 1007.53 1006.85 1006.45 1006.17 1005.57 1004.97 1004.37 1003.89 1003.41 1003.01 1002.77 1002.49 1002.13 1001.81 1001.69 1001.53 1001.17 1000.41 999.45 998.73 998.37 998.25 998.21 998.17 998.05 998.01 997.85 997.73
1015.29 1014.73 1014.13 1013.41 1012.77 1012.01 1011.41 1010.81 1010.25 1009.65 1009.25 1008.81 1008.37 1007.69 1007.09 1006.65 1006.09 1005.69 1005.41 1004.89 1004.49 1004.01 1003.69 1003.29 1002.93 1002.49 1002.01 1001.61 1001.37 1001.17 1000.89 1000.17 999.41 998.57 997.93 997.69 997.69 997.73 997.69 997.61 997.57 997.45
1015.01 1014.53 1013.77 1013.05 1012.41 1011.81 1011.05 1010.49 1010.05 1009.49 1008.93 1008.49 1008.21 1007.61 1006.81 1006.21 1005.73 1005.33 1004.93 1004.65 1004.17 1003.89 1003.49 1003.01 1002.53 1001.97 1001.49 1001.17 1000.97 1000.77 1000.61 1000.09 999.33 998.65 997.97 997.57 997.49 997.49 997.41 997.37 997.33 997.29
1014.81 1014.17 1013.45 1012.81 1011.97 1011.37 1010.85 1010.21 1009.69 1009.13 1008.81 1008.25 1007.73 1007.33 1006.61 1005.89 1005.37 1004.89 1004.37 1004.13 1003.69 1003.45 1003.09 1002.65 1001.97 1001.33 1000.85 1000.57 1000.33 1000.17 1000.13 999.89 999.25 998.69 998.13 997.61 997.41 997.33 997.29 997.21 997.17 997.09
1014.25 1013.69 1012.97 1012.37 1011.97 1011.41 1010.77 1010.33 1009.89 1009.37 1008.81 1008.21 1007.57 1006.89 1006.25 1005.57 1004.97 1004.53 1004.05 1003.57 1003.25 1003.01 1002.65 1002.21 1001.49 1000.57 999.93 999.57 999.41 999.29 999.37 999.33 998.97 998.41 998.01 997.69 997.41 997.25 997.09 996.97 996.85 996.69
1014.13 1013.49 1012.89 1012.21 1011.65 1011.21 1010.69 1010.09 1009.57 1009.01 1008.37 1007.73 1007.05 1006.37 1005.69 1005.09 1004.53 1004.05 1003.61 1003.09 1002.65 1002.33 1002.17 1001.73 1000.93 999.93 999.13 998.77 998.53 998.45 998.49 998.57 998.49 998.29 998.05 997.69 997.29 997.01 996.73 996.53 996.29 996.09
1013.81 1013.17 1012.65 1012.25 1011.85 1011.37 1010.81 1010.25 1009.61 1008.97 1008.25 1007.41 1006.65 1005.93 1005.21 1004.49 1003.93 1003.45 1003.01 1002.53 1002.13 1001.73 1001.49 1001.29 1000.81 999.97 999.01 998.37 997.97 997.69 997.65 997.57 997.61 997.49 997.37 997.09 996.73 996.45 996.17 995.85 995.65 995.45
1013.73 1013.17 1012.73 1012.29 1011.89 1011.33 1010.69 1009.97 1009.29 1008.69 1008.01 1007.21 1006.33 1005.45 1004.65 1003.97 1003.33 1002.73 1002.33 1002.01 1001.57 1001.17 1000.85 1000.57 1000.17 999.49 998.69 998.05 997.53 997.09 996.85 996.73 996.65 996.53 996.41 996.21 995.85 995.57 995.37 995.21 995.05 994.93
1013.81 1013.41 1012.89 1012.33 1011.69 1011.05 1010.45 1009.77 1009.05 1008.29 1007.45 1006.49 1005.45 1004.69 1004.05 1003.45 1002.73 1002.09 1001.49 1001.17 1000.97 1000.61 1000.21 999.81 999.49 998.97 998.25 997.53 997.01 996.57 996.17 995.93 995.73 995.53 995.37 995.21 995.05 994.81 994.65 994.61 994.57 994.53
1014.01 1013.73 1013.09 1012.33 1011.57 1010.85 1010.09 1009.21 1008.41 1007.65 1006.93 1006.17 1005.13 1004.05 1003.37 1002.57 1001.93 1001.41 1000.81 1000.49 1000.29 1000.05 999.61 999.13 998.69 998.29 997.81 997.17 996.65 996.17 995.65 995.25 994.85 994.69 994.49 994.37 994.29 994.13 994.05 994.05 994.13 994.21
1014.25 1013.73 1013.13 1012.29 1011.45 1010.65 1009.81 1009.05 1008.29 1007.21 1006.21 1005.41 1004.49 1003.57 1002.81 1002.13 1001.41 1000.77 1000.09 999.69 999.45 999.33 998.97 998.41 997.89 997.49 997.17 996.73 996.21 995.81 995.33 994.89 994.41 994.21 994.01 993.77 993.57 993.49 993.41 993.45 993.61 993.77
1014.53 1013.73 1012.93 1012.09 1011.17 1010.25 1009.45 1008.49 1007.49 1006.65 1005.61 1004.53 1003.77 1002.81 1002.05 1001.41 1000.61 1000.17 999.53 999.09 998.77 998.53 998.21 997.69 997.01 996.61 996.33 996.09 995.69 995.25 994.81 994.41 994.09 993.93 993.77 993.57 993.25 993.05 992.93 992.93 993.13 993.33
1014.69 1013.97 1012.89 1011.93 1010.97 1009.93 1008.85 1008.01 1006.97 1005.69 1004.77 1003.97 1003.05 1002.13 1001.33 1000.69 1000.17 999.53 998.93 998.41 997.85 997.65 997.53 997.05 996.53 995.89 995.45 995.13 994.93 994.65 994.41 994.09 993.89 993.69 993.49 993.33 992.97 992.73 992.65 992.61 992.73 992.89
1014.57 1014.01 1013.01 1011.77 1010.81 1009.73 1008.45 1007.33 1006.41 1005.29 1004.45 1003.61 1002.97 1001.97 1001.09 1000.29 999.57 998.97 998.25 997.73 997.33 996.93 996.65 996.37 995.93 995.45 994.93 994.49 994.17 993.85 993.65 993.61 993.57 993.45 993.25 993.09 992.73 992.53 992.45 992.41 992.37 992.45
1014.49 1013.73 1012.93 1011.69 1010.41 1009.25 1008.29 1007.09 1006.13 1005.29 1004.45 1003.69 1002.85 1001.93 1000.93 999.89 999.05 998.45 997.61 996.93 996.41 996.01 995.65 995.53 995.21 994.89 994.41 993.85 993.45 993.09 992.81 992.81 992.85 992.85 992.81 992.61 992.45 992.21 992.17 992.17 992.13 992.05
1014.49 1013.57 1012.57 1011.65 1010.33 1008.93 1008.01 1007.25 1006.29 1005.33 1004.49 1003.69 1002.65 1001.77 1000.69 999.61 998.69 997.77 997.09 996.17 995.49 995.17 994.77 994.49 994.33 994.13 993.77 993.09 992.69 992.41 992.13 992.13 992.17 992.13 991.89 991.85 991.81 991.69 991.65 991.57 991.49 991.41
Wind_Speed
9 9 11 11 11 11 11 13 14 14 15 12 14 13 15 11 14 15 15 13 17 14 15 16 13 13 14 15 17 16 12 12 9 7 7 8 8 10 13 12 10 10
11 10 10 10 11 11 12 13 14 16 13 16 11 13 15 13 15 14 14 16 16 16 15 13 13 14 14 15 15 16 13 11 10 7 7 7 8 9 12 13 11 10
11 12 13 13 13 15 15 14 15 11 12 15 14 13 12 14 16 13 14 15 14 16 14 11 12 13 14 14 16 14 13 12 11 9 8 7 7 8 9 10 10 10
13 12 13 13 13 14 12 13 14 11 14 11 14 13 13 13 12 14 14 16 15 14 11 12 13 14 14 14 14 13 13 12 10 9 8 6 6 7 8 10 10 10
12 13 13 12 12 15 14 14 13 14 14 13 15 12 14 13 12 15 13 15 14 13 13 13 15 13 14 11 13 14 13 11 10 10 8 7 6 6 7 9 11 11
12 12 13 13 14 15 14 16 14 15 14 16 13 14 14 13 13 13 15 14 14 12 14 13 12 13 10 10 12 13 12 11 10 10 9 8 7 6 6 8 11 12
13 14 14 15 13 14 15 14 16 14 13 14 14 14 13 13 14 13 15 14 15 12 13 13 13 13 11 10 10 13 12 12 11 10 9 8 6 7 6 8 10 12
15 13 14 13 16 17 14 15 12 14 13 13 15 14 12 13 14 13 13 14 13 14 12 12 14 14 14 10 11 12 14 12 11 10 9 8 6 7 7 7 9 12
13 12 15 15 17 13 16 14 16 14 13 15 14 11 13 10 13 12 14 13 15 15 15 14 13 14 12 10 11 14 15 13 11 10 9 8 7 7 7 7 9 11
14 15 14 17 15 15 17 18 17 16 17 17 17 19 16 15 11 12 13 13 14 14 13 14 14 13 11 10 10 12 15 15 11 10 9 8 7 7 7 7 9 10
15 13 16 16 18 15 16 19 20 20 13 16 20 20 18 16 17 15 16 15 14 13 13 11 11 11 11 11 10 10 12 14 13 10 9 9 7 7 7 8 9 10
15 15 16 19 19 20 22 20 18 18 20 17 14 19 20 18 18 16 15 17 17 16 15 16 15 15 15 12 13 10 11 12 13 13 10 9 8 7 7 7 9 10
14 15 15 16 19 18 15 16 19 17 16 19 17 19 20 19 18 18 16 16 17 16 16 15 14 16 15 15 12 13 11 13 12 13 12 9 8 8 7 7 8 9
16 15 16 17 14 17 19 18 18 19 18 18 20 19 18 19 18 18 17 16 16 16 16 15 15 14 14 13 13 11 9 11 11 12 13 11 9 8 8 8 8 9
15 14 13 19 21 19 20 19 21 22 19 18 18 20 17 18 18 18 19 18 17 17 16 15 16 16 12 10 9 11 9 11 12 12 10 9 9 9 9 9 9 9
16 16 18 17 15 19 19 19 18 17 21 22 19 17 17 17 18 18 18 18 18 17 15 14 14 13 16 24 20 13 11 10 10 11 12 11 11 10 10 9 10 9
15 15 15 18 19 18 18 19 22 22 18 19 19 18 18 18 17 19 17 16 17 16 16 14 13 14 26 25 24 26 18 13 11 11 11 12 11 11 11 10 9 9
14 16 17 18 17 19 18 16 17 17 19 19 19 21 18 17 18 17 17 16 15 16 16 15 14 19 25 26 26 26 23 15 12 11 11 11 11 11 10 9 9 9
16 17 19 18 17 17 17 19 19 19 19 19 18 17 18 18 18 18 17 15 15 16 16 16 15 20 24 26 25 25 25 21 13 12 11 11 12 11 10 9 8 8
15 17 19 19 18 18 18 18 18 18 18 18 18 18 16 16 17 18 17 16 15 15 16 16 16 19 24 25 24 24 24 21 13 12 12 12 13 12 11 10 9 9
16 17 17 18 18 19 18 17 19 20 18 16 15 16 15 15 15 16 15 14 14 14 14 15 14 23 24 24 24 24 25 21 13 11 11 11 11 12 12 11 10 9
17 18 18 19 19 19 18 18 17 17 19 16 14 14 13 13 14 14 15 15 14 14 14 16 15 24 25 25 25 24 24 14 12 11 12 13 13 12 12 10 10 9
16 17 19 20 20 21 21 16 17 18 15 13 15 14 14 12 13 13 13 14 14 13 14 15 15 20 23 23 23 23 19 12 11 10 11 13 14 12 11 11 10 10
16 16 19 20 20 21 23 19 16 15 14 14 16 18 17 14 13 13 13 13 14 14 13 14 14 18 24 24 23 23 19 13 11 11 12 12 12 11 10 10 11 15
16 17 17 19 21 21 18 18 18 18 17 16 16 16 17 16 13 11 13 13 13 14 20 19 14 16 22 24 25 24 18 11 11 11 12 12 11 10 9 8 9 11
15 17 18 18 20 21 19 18 17 17 18 17 16 15 15 15 14 11 12 12 12 13 13 14 14 14 17 24 24 23 24 14 10 11 13 13 12 10 9 9 10 10
Wind_Direction
293 296 295 295 292 291 291 295 296 295 295 293 293 296 296 298 296 291 287 287 290 287 288 285 284 294 297 294 291 280 258 253 244 230 232 247 257 266 268 261 257 256
297 295 292 290 291 290 289 290 292 293 291 292 289 290 293 289 290 288 289 289 288 283 281 281 292 294 294 292 287 284 270 255 250 233 233 241 255 264 269 268 261 260
303 302 300 297 295 292 293 291 289 285 287 290 289 289 288 294 290 285 284 286 286 287 282 283 292 291 288 286 285 282 268 255 249 242 231 236 248 261 270 269 263 256
304 300 297 293 291 292 291 292 289 287 288 285 290 288 290 289 290 290 287 286 283 281 286 294 291 288 289 293 296 287 274 259 253 250 243 234 241 256 266 271 263 255
304 304 303 300 294 297 295 293 292 291 290 290 290 289 288 289 288 287 282 279 280 284 288 287 286 283 285 287 287 286 280 268 259 255 250 246 243 251 266 273 267 255
301 300 299 298 298 302 297 296 293 292 290 291 287 289 287 283 285 283 284 281 281 280 281 281 278 276 276 284 288 284 279 269 261 256 255 252 254 250 261 269 274 268
305 305 302 301 297 295 294 293 294 289 289 287 290 286 288 284 285 284 282 282 278 274 275 277 275 278 282 283 284 282 275 264 256 254 253 256 252 262 263 270 273 271
303 300 300 300 302 300 291 294 289 293 291 290 286 288 284 285 283 282 282 276 275 275 276 276 278 280 281 282 280 280 273 264 249 245 246 251 252 262 265 267 274 276
302 301 304 303 302 299 299 297 299 295 295 293 294 290 287 279 284 280 277 277 278 278 279 276 275 274 273 275 283 288 284 268 248 239 237 242 248 255 262 267 273 275
303 304 303 304 301 301 299 301 300 302 304 300 304 301 300 296 280 280 275 269 267 268 266 266 264 265 271 274 281 285 291 286 258 242 235 237 241 253 262 267 269 277
303 304 304 303 304 299 301 309 306 302 300 307 307 302 298 298 294 292 290 287 279 273 273 274 282 285 283 281 277 278 284 288 284 264 248 245 243 248 259 267 271 271
309 307 307 309 309 314 311 306 307 308 305 308 307 302 299 299 295 290 290 288 287 288 290 289 285 280 277 276 278 277 278 282 286 283 265 254 249 250 257 262 271 273
303 305 306 310 310 307 310 309 308 306 304 302 308 308 298 296 295 290 284 283 281 279 277 274 272 270 271 271 269 269 270 275 278 281 272 257 250 250 250 259 266 272
307 303 305 306 306 307 306 308 311 309 309 308 302 300 299 293 294 292 287 283 282 280 280 279 273 267 262 261 261 259 258 263 269 268 265 257 253 248 247 251 258 266
292 299 307 314 311 316 316 313 316 312 306 308 305 299 293 291 290 291 289 286 283 280 279 275 271 268 265 255 248 251 248 252 259 265 262 259 256 253 249 249 253 260
304 308 315 315 313 313 310 309 309 313 309 301 297 297 294 291 290 287 285 283 282 280 276 275 273 270 267 265 261 258 255 253 254 257 261 260 257 257 256 249 253 259
306 311 313 315 316 315 314 311 310 310 307 307 297 291 294 289 286 286 282 282 281 280 276 269 267 268 270 268 267 264 262 256 251 253 256 258 254 253 256 255 256 259
311 315 317 316 316 313 311 309 306 304 304 301 302 295 289 289 283 281 281 281 281 278 275 270 267 262 263 264 264 263 260 257 252 251 251 253 255 250 249 252 259 265
317 319 317 314 312 312 311 310 305 303 298 293 286 289 289 287 285 282 280 278 274 273 273 270 267 266 267 266 264 262 261 259 255 252 248 251 254 255 250 251 255 264
318 320 316 311 311 310 306 302 303 301 298 292 289 287 282 278 280 276 275 275 273 269 270 271 265 263 264 266 266 265 262 260 254 250 249 248 251 253 253 250 250 255
319 316 313 311 309 308 304 300 301 299 293 288 285 283 284 282 283 283 276 271 268 267 269 268 265 264 265 266 265 261 258 261 261 261 261 257 250 250 249 247 244 244
321 317 314 313 313 312 306 296 295 291 291 288 280 279 274 275 274 271 270 270 268 264 262 266 268 265 263 265 266 265 259 252 251 249 252 254 254 248 244 239 239 234
318 315 312 314 314 313 312 300 299 297 292 288 287 285 281 274 273 271 270 268 264 259 260 264 265 267 269 268 266 261 256 254 256 255 249 250 249 243 237 236 232 231
316 315 313 312 313 311 312 306 298 296 299 306 310 307 295 282 279 276 268 263 261 263 258 257 262 264 267 267 263 258 248 243 242 247 247 245 247 237 232 230 232 231
315 314 313 313 314 313 311 311 316 318 315 313 307 303 298 289 276 267 267 264 256 251 258 261 260 263 263 264 263 257 249 240 239 235 239 238 239 238 227 228 233 237
312 313 312 314 313 314 317 317 316 316 316 315 308 303 299 297 285 268 263 263 257 251 248 250 253 256 258 259 256 252 249 245 236 239 235 232 233 238 237 234 237 237